Temp
84 84 84 84 84 84 84 84 84 84 83 83 83 83 84 83 82 81 81 80 79 79 79 79 79 79 79 79 80 80 80 79 79 78 78 78 78 79 78 78 78 77 78 78 78 79 80 80 80 80 80 80 80 79 79 79 78 79 78 77 77 76 76
83 83 83 84 84 84 84 84 84 84 84 84 84 83 84 83 82 81 81 80 80 79 79 79 79 79 79 79 80 79 79 79 79 79 79 78 78 78 79 79 79 77 77 79 79 79 79 80 80 80 80 80 80 80 80 79 78 78 78 77 77 76 76
83 83 83 83 83 83 83 84 84 85 84 85 85 84 84 82 82 82 81 80 80 80 80 79 79 79 80 80 79 79 79 79 79 79 78 79 79 79 79 79 79 79 79 79 79 79 80 80 80 80 80 80 80 79 80 79 79 79 78 77 77 77 75
83 83 84 84 84 84 84 84 84 86 86 85 85 85 84 83 83 83 82 82 80 80 79 80 80 80 79 79 79 79 79 79 80 80 80 80 79 80 79 79 79 80 78 78 80 81 81 80 80 79 81 79 80 80 80 80 80 79 79 78 77 77 76
83 84 84 83 83 83 83 83 84 85 86 86 86 85 85 84 84 83 83 83 82 81 81 81 82 81 80 80 80 79 79 79 79 80 80 80 80 80 79 79 80 80 80 80 79 79 79 80 80 79 79 79 80 79 79 80 80 79 79 78 77 77 77
82 82 83 83 83 83 84 84 85 86 86 86 86 85 86 85 85 84 83 82 82 82 82 81 81 81 80 80 80 80 79 79 80 80 80 80 80 80 80 80 80 80 80 80 80 80 80 80 80 80 80 80 80 80 80 80 80 80 79 78 78 77 76
83 83 83 84 84 84 84 84 85 86 87 88 87 87 86 86 85 85 84 83 83 81 81 81 81 81 80 80 80 79 79 79 79 79 80 80 80 80 80 80 80 81 82 81 79 80 80 80 80 80 80 80 80 80 80 79 79 79 79 78 78 77 77
84 84 84 84 85 85 85 84 85 86 87 87 87 86 86 86 86 85 84 84 83 83 82 82 81 81 81 81 80 80 80 80 80 80 80 80 80 80 80 80 80 81 81 81 81 80 81 80 81 81 81 81 80 80 80 80 79 80 79 78 78 78 78
85 85 85 85 85 86 86 85 85 85 85 85 85 85 86 86 86 85 84 84 84 83 82 83 82 82 81 81 80 80 80 80 80 80 80 80 80 80 81 81 81 81 81 81 82 81 81 81 81 81 81 80 80 79 80 80 80 80 79 79 78 78 78
84 84 84 86 86 87 86 85 84 84 83 83 83 83 85 85 86 86 85 84 84 83 83 83 83 83 81 81 80 80 80 79 80 80 80 80 80 80 81 82 82 81 81 82 82 82 82 82 82 81 80 80 80 79 80 80 80 80 80 79 79 78 78
84 83 83 84 84 84 84 84 82 82 82 82 83 84 84 85 85 86 85 85 84 84 84 84 84 83 82 81 81 80 80 79 80 80 80 80 81 81 82 82 83 82 81 82 82 82 82 81 81 81 80 80 80 80 80 80 80 80 80 80 80 79 79
82 82 81 83 83 82 82 82 82 81 81 82 83 84 83 84 85 86 86 85 86 85 84 84 84 83 82 82 81 80 79 79 79 79 80 80 81 81 82 82 82 82 82 82 82 82 83 82 81 81 81 81 81 81 80 80 80 80 80 80 80 80 80
82 81 81 83 82 83 82 80 80 81 81 83 84 84 84 85 86 86 85 85 86 86 85 84 84 83 82 82 81 80 79 79 79 80 80 80 81 82 82 82 83 83 83 83 83 83 83 83 82 81 81 81 81 81 81 80 81 80 80 80 80 80 79
82 82 83 83 82 81 80 80 81 81 81 82 83 84 85 86 86 86 85 85 86 86 86 86 84 83 82 82 81 80 79 80 80 80 80 81 81 81 82 82 82 82 83 83 83 83 83 83 82 82 82 82 81 82 82 81 80 80 80 80 80 80 79
82 82 82 82 81 81 81 80 80 80 81 82 84 84 84 85 86 86 86 86 86 87 86 85 84 83 82 81 80 80 80 80 80 81 80 81 80 80 81 82 82 82 82 82 83 84 84 84 84 82 81 82 81 81 82 81 80 81 81 80 80 80 80
83 83 83 82 82 82 81 81 81 81 81 81 83 83 84 84 84 85 86 86 87 86 87 85 83 82 82 81 81 81 80 80 80 80 80 80 80 80 81 81 82 82 82 82 83 83 83 83 83 83 82 81 81 81 81 81 81 78 72 73 81 80 81
84 84 83 83 82 82 82 81 82 81 81 81 82 83 84 84 85 86 87 87 87 86 87 86 83 83 82 81 81 81 81 80 80 80 79 80 80 80 80 81 81 81 81 81 82 82 82 82 83 83 83 82 82 81 81 81 81 72 68 68 70 79 80
84 83 84 84 84 83 81 81 80 80 81 82 83 84 84 84 85 85 86 87 87 88 88 86 84 83 82 82 82 81 81 80 80 79 79 80 80 80 80 81 81 81 81 81 81 81 83 82 82 82 83 83 83 82 81 81 75 69 67 67 67 69 80
84 85 84 84 83 82 82 83 82 82 83 84 85 85 86 86 86 85 86 86 87 88 88 86 85 83 82 82 82 82 81 81 80 80 80 80 80 80 80 80 80 80 80 81 82 82 81 81 82 82 82 83 82 82 82 82 73 68 66 65 66 65 72
84 85 85 86 85 84 84 83 83 83 84 85 86 88 88 88 87 87 88 89 88 88 87 86 85 84 83 82 82 82 82 81 81 80 80 80 80 80 80 80 80 81 82 82 81 81 81 81 81 82 81 82 82 82 83 82 74 67 64 64 64 64 67
81 81 83 83 82 83 82 82 82 82 82 84 86 87 88 87 88 88 88 88 87 88 86 86 85 84 83 82 82 82 82 81 81 80 80 80 80 80 80 80 80 80 82 82 82 81 81 81 81 81 82 83 83 83 82 83 72 65 63 62 62 63 64
79 81 82 82 82 81 80 82 82 83 83 84 85 86 88 87 88 87 87 88 88 87 87 86 85 84 83 82 83 83 82 82 81 81 81 80 80 80 80 80 80 80 81 82 83 83 83 82 82 82 82 82 83 83 82 84 70 64 63 61 61 62 69
82 81 80 79 83 81 81 83 83 84 83 82 84 86 87 87 87 87 87 87 88 87 87 86 85 84 83 83 83 83 83 83 82 81 81 81 80 80 80 80 80 81 81 81 82 82 82 82 83 83 83 83 82 82 83 84 73 63 61 60 60 61 72
78 78 78 78 78 79 79 79 81 82 84 82 83 85 86 86 86 85 84 86 87 87 86 86 85 84 83 83 84 84 84 83 83 81 81 81 80 80 81 82 82 82 82 81 81 82 83 83 83 83 83 83 82 83 83 83 76 61 59 58 59 64 74
79 79 78 78 78 77 77 77 79 80 79 80 80 80 81 85 86 85 84 84 86 86 85 85 85 84 83 84 85 85 85 84 83 82 82 81 81 82 81 81 81 82 82 82 83 83 83 83 83 83 83 84 83 79 81 84 77 59 59 57 57 63 74
77 78 79 79 79 77 77 78 79 78 77 75 74 76 78 80 83 84 84 83 85 85 84 85 85 85 84 84 85 85 84 84 83 83 83 82 82 83 82 82 82 82 82 82 83 83 83 83 82 82 82 83 83 83 82 82 82 66 58 57 57 59 73
78 78 78 78 78 80 78 77 77 76 76 75 76 76 76 77 79 79 79 79 81 82 84 85 84 82 82 83 84 84 84 85 84 84 84 84 83 83 83 83 82 82 82 82 82 82 81 82 81 81 82 82 82 83 82 82 81 71 56 56 56 57 63
78 78 79 79 80 79 77 78 77 77 78 76 77 76 75 75 75 74 75 75 77 81 83 80 80 80 81 82 83 84 85 85 84 85 84 84 83 82 81 82 82 82 81 82 81 80 80 80 80 81 81 80 80 82 81 81 78 78 58 57 55 56 57
74 75 75 76 76 78 78 75 75 75 75 76 76 76 74 74 75 75 75 74 77 79 79 79 79 79 80 81 82 83 84 84 84 84 84 84 83 82 81 81 81 81 81 80 80 79 79 79 79 79 78 77 77 79 80 79 79 71 70 57 55 55 55
75 75 75 76 76 76 76 74 74 73 74 74 75 75 75 74 74 75 75 75 76 76 79 79 79 79 79 80 81 82 83 83 84 84 84 84 83 82 81 80 81 81 80 80 80 79 78 78 78 78 77 77 75 77 78 78 75 67 63 63 54 53 53
73 73 74 73 74 75 74 72 72 72 73 74 74 75 75 75 72 73 74 73 75 75 78 79 79 79 79 79 80 81 83 83 83 84 84 83 83 81 81 80 80 80 79 79 79 79 78 77 77 77 77 75 75 74 71 69 68 66 59 57 54 55 52
72 73 73 73 73 73 72 72 72 72 72 73 73 74 75 75 74 73 74 75 76 77 78 79 78 78 79 79 79 80 82 82 82 83 83 82 82 82 82 81 80 80 79 79 79 79 78 77 76 76 76 75 76 73 68 67 67 66 66 64 61 57 52
70 70 70 70 72 73 71 71 71 71 71 71 72 73 74 75 75 75 75 75 75 76 77 78 78 79 78 78 79 80 81 81 81 81 81 80 81 81 81 81 81 80 78 79 79 78 77 77 75 75 75 75 74 69 66 66 65 64 65 64 65 64 61
69 70 70 70 71 72 70 70 69 69 69 70 71 72 74 74 75 75 75 76 76 75 77 77 77 78 78 79 79 79 80 80 83 81 78 77 77 78 79 80 80 79 78 78 78 77 77 76 76 76 76 75 69 67 66 65 64 63 64 64 64 64 64
68 68 69 70 70 71 69 68 69 68 69 70 70 72 74 74 74 74 75 75 75 74 76 76 77 77 77 78 78 78 79 79 79 76 70 62 58 53 53 56 64 69 69 65 69 78 80 77 77 77 76 74 70 68 66 65 64 64 58 60 57 63 64
67 67 67 69 69 69 70 70 68 68 68 69 70 71 72 73 74 74 75 74 75 74 75 75 76 76 77 77 77 77 77 76 75 72 69 66 62 61 59 55 48 51 62 65 60 53 61 66 73 74 72 69 67 68 70 68 67 54 48 47 46 47 48
66 67 67 68 68 68 68 67 69 67 69 69 69 70 70 71 72 73 73 74 73 74 73 74 75 75 75 76 76 76 75 74 71 69 67 67 66 65 64 63 60 48 47 52 54 52 49 49 52 58 63 69 66 59 57 57 51 46 46 46 46 46 45
68 67 68 68 67 67 67 67 67 67 68 68 69 69 70 70 71 71 73 73 73 73 72 72 73 72 72 72 72 72 72 71 69 68 68 67 68 68 66 65 64 63 51 46 49 49 47 48 49 50 52 55 59 60 57 50 46 45 46 47 46 46 44
MSLP
1001.92 1002.48 1002.64 1002.88 1003.40 1003.56 1003.80 1004.08 1004.48 1005.00 1005.32 1005.68 1005.92 1006.24 1006.56 1006.88 1007.24 1007.68 1008.28 1008.76 1009.24 1009.72 1009.96 1010.20 1010.48 1010.76 1011.12 1011.32 1011.52 1011.84 1012.20 1012.68 1013.04 1013.48 1013.76 1013.92 1013.96 1014.08 1014.36 1014.52 1014.84 1015.04 1015.24 1015.52 1015.60 1015.64 1015.56 1015.64 1015.88 1016.00 1016.20 1016.36 1016.52 1016.64 1016.76 1016.92 1017.20 1017.32 1017.44 1017.60 1017.84 1018.04 1018.20
1002.44 1002.48 1002.52 1002.68 1003.00 1003.24 1003.40 1003.64 1004.04 1004.60 1005.04 1005.24 1005.52 1005.84 1006.12 1006.44 1006.80 1007.32 1007.72 1008.08 1008.52 1009.00 1009.48 1009.84 1010.16 1010.44 1010.64 1010.92 1011.16 1011.52 1011.96 1012.32 1012.64 1013.00 1013.36 1013.68 1013.80 1013.92 1013.96 1014.16 1014.40 1014.72 1014.80 1014.88 1015.04 1015.16 1015.36 1015.52 1015.60 1015.88 1016.08 1016.20 1016.36 1016.40 1016.60 1016.76 1016.96 1017.20 1017.40 1017.52 1017.80 1018.00 1018.12
1001.88 1001.96 1002.16 1002.36 1002.60 1002.80 1003.08 1003.44 1003.68 1003.88 1004.36 1004.80 1005.12 1005.52 1005.72 1005.96 1006.16 1006.52 1007.08 1007.72 1008.28 1008.68 1009.00 1009.40 1009.64 1009.96 1010.24 1010.60 1011.04 1011.36 1011.60 1012.00 1012.44 1012.80 1013.20 1013.40 1013.56 1013.64 1013.72 1013.88 1014.04 1014.32 1014.40 1014.52 1014.72 1014.96 1015.04 1015.32 1015.40 1015.60 1015.80 1016.08 1016.20 1016.36 1016.44 1016.64 1016.80 1017.00 1017.16 1017.36 1017.60 1017.88 1018.04
1001.28 1001.40 1001.40 1001.32 1001.44 1001.80 1002.32 1002.68 1003.04 1003.28 1003.68 1004.08 1004.40 1004.76 1005.16 1005.48 1005.60 1006.00 1006.44 1007.00 1007.80 1008.40 1008.96 1009.12 1009.36 1009.76 1010.04 1010.48 1010.84 1011.08 1011.40 1011.64 1011.88 1012.28 1012.56 1012.80 1013.12 1013.28 1013.64 1013.76 1013.84 1013.96 1014.36 1014.44 1014.40 1014.56 1014.76 1015.00 1015.28 1015.44 1015.60 1015.88 1016.08 1016.20 1016.32 1016.48 1016.60 1016.80 1016.96 1017.20 1017.48 1017.56 1017.72
1000.56 1000.52 1000.88 1001.48 1002.00 1002.36 1002.60 1002.84 1002.92 1003.00 1003.24 1003.44 1003.80 1004.16 1004.44 1004.80 1005.24 1005.80 1006.24 1006.60 1007.00 1007.68 1008.00 1008.44 1008.88 1009.32 1009.76 1010.04 1010.44 1010.68 1010.92 1011.24 1011.60 1011.84 1012.16 1012.40 1012.68 1013.04 1013.40 1013.56 1013.60 1013.76 1013.80 1014.04 1014.24 1014.48 1014.68 1014.92 1015.12 1015.32 1015.52 1015.64 1015.88 1016.04 1016.20 1016.28 1016.44 1016.52 1016.80 1017.00 1017.36 1017.44 1017.60
1000.40 1000.80 1001.16 1001.48 1001.76 1001.88 1002.00 1002.16 1002.28 1002.44 1002.80 1003.32 1003.68 1004.04 1004.32 1004.76 1005.12 1005.64 1005.92 1006.40 1006.84 1007.12 1007.64 1008.20 1008.68 1009.00 1009.52 1009.72 1010.04 1010.44 1010.72 1011.00 1011.20 1011.48 1011.84 1012.12 1012.48 1012.84 1013.04 1013.16 1013.36 1013.48 1013.76 1013.84 1013.96 1014.16 1014.32 1014.60 1014.84 1015.04 1015.28 1015.40 1015.56 1015.80 1015.92 1016.16 1016.24 1016.36 1016.60 1016.84 1017.04 1017.24 1017.52
999.72 1000.00 1000.40 1000.80 1001.12 1001.40 1001.68 1001.92 1002.08 1002.16 1002.28 1002.60 1003.00 1003.44 1003.92 1004.40 1004.80 1005.08 1005.52 1006.08 1006.44 1007.12 1007.60 1007.96 1008.16 1008.56 1008.96 1009.32 1009.76 1010.16 1010.56 1010.76 1011.00 1011.32 1011.56 1011.96 1012.20 1012.56 1012.72 1012.88 1013.00 1013.16 1013.20 1013.48 1013.84 1013.84 1014.16 1014.32 1014.44 1014.64 1014.80 1015.04 1015.28 1015.48 1015.72 1015.92 1016.12 1016.12 1016.36 1016.68 1016.88 1017.00 1017.12
998.68 999.48 999.60 999.84 1000.20 1000.68 1001.20 1001.56 1001.76 1001.92 1002.12 1002.56 1003.20 1003.72 1004.00 1004.08 1004.44 1005.00 1005.40 1005.64 1006.12 1006.60 1007.04 1007.44 1007.88 1008.12 1008.48 1008.88 1009.20 1009.64 1009.96 1010.28 1010.48 1010.84 1011.24 1011.64 1011.92 1012.24 1012.40 1012.56 1012.72 1012.72 1013.00 1013.32 1013.28 1013.44 1013.72 1013.88 1014.00 1014.16 1014.40 1014.72 1014.96 1015.12 1015.32 1015.52 1015.72 1015.88 1016.12 1016.52 1016.72 1016.88 1016.88
997.92 998.08 998.72 999.16 999.68 1000.16 1000.52 1000.92 1001.28 1001.64 1002.12 1002.48 1002.84 1003.24 1003.56 1003.92 1004.28 1004.56 1004.84 1005.28 1005.72 1006.20 1006.56 1006.72 1007.12 1007.44 1007.96 1008.48 1008.92 1009.24 1009.48 1009.84 1010.28 1010.60 1010.96 1011.36 1011.64 1011.92 1012.04 1012.16 1012.28 1012.36 1012.72 1012.84 1012.96 1013.04 1013.24 1013.48 1013.64 1013.84 1014.08 1014.36 1014.56 1014.80 1015.00 1015.16 1015.40 1015.56 1015.84 1016.12 1016.36 1016.56 1016.68
997.84 998.32 998.36 998.44 998.88 999.40 999.88 1000.44 1001.04 1001.72 1002.28 1002.56 1002.80 1003.16 1003.40 1003.56 1003.76 1004.08 1004.56 1004.92 1005.36 1005.84 1006.08 1006.44 1006.76 1007.24 1007.76 1008.20 1008.56 1008.84 1009.32 1009.76 1009.96 1010.36 1010.68 1011.08 1011.24 1011.52 1011.64 1011.80 1011.96 1012.08 1012.36 1012.44 1012.56 1012.84 1012.88 1013.00 1013.28 1013.52 1013.84 1014.08 1014.28 1014.52 1014.68 1014.88 1015.08 1015.28 1015.40 1015.60 1015.80 1016.08 1016.24
997.40 997.76 998.32 998.92 999.36 999.64 1000.12 1000.76 1001.36 1001.72 1001.84 1002.12 1002.36 1002.60 1002.92 1003.16 1003.44 1003.84 1004.20 1004.48 1004.88 1005.12 1005.40 1005.88 1006.28 1006.88 1007.32 1007.72 1008.28 1008.72 1009.12 1009.44 1009.72 1010.08 1010.36 1010.64 1010.84 1011.16 1011.36 1011.56 1011.72 1011.88 1012.08 1012.20 1012.40 1012.44 1012.64 1012.84 1012.92 1013.28 1013.56 1013.84 1013.96 1014.16 1014.32 1014.40 1014.60 1014.88 1015.04 1015.12 1015.20 1015.40 1015.64
997.44 997.88 998.44 998.72 999.16 999.80 1000.36 1000.40 1000.68 1001.24 1001.56 1001.76 1001.92 1002.16 1002.48 1002.72 1003.04 1003.36 1003.64 1003.88 1003.96 1004.60 1005.08 1005.48 1005.80 1006.28 1006.88 1007.36 1008.00 1008.44 1008.76 1009.00 1009.32 1009.60 1009.84 1010.16 1010.48 1010.76 1011.00 1011.20 1011.44 1011.64 1011.76 1011.84 1012.12 1012.16 1012.24 1012.52 1012.72 1012.88 1013.16 1013.24 1013.36 1013.52 1013.72 1013.88 1014.12 1014.36 1014.52 1014.64 1014.76 1015.00 1015.16
997.44 997.84 998.16 998.52 998.96 999.28 999.60 1000.32 1000.72 1000.76 1001.00 1001.16 1001.40 1001.64 1001.96 1002.36 1002.68 1002.96 1003.32 1003.72 1003.88 1004.12 1004.56 1004.92 1005.36 1005.88 1006.48 1006.96 1007.48 1007.92 1008.24 1008.48 1008.64 1008.84 1009.24 1009.60 1009.96 1010.24 1010.56 1010.80 1010.96 1011.24 1011.44 1011.44 1011.64 1011.88 1012.08 1012.12 1012.36 1012.40 1012.60 1012.76 1012.88 1013.12 1013.28 1013.48 1013.68 1013.88 1014.08 1014.24 1014.44 1014.68 1014.92
997.08 997.68 997.92 998.12 998.64 999.16 999.68 999.80 1000.00 1000.48 1000.68 1000.92 1001.16 1001.32 1001.68 1001.88 1002.12 1002.48 1002.88 1003.32 1003.48 1003.80 1004.28 1004.64 1005.08 1005.52 1006.00 1006.48 1007.04 1007.40 1007.64 1007.80 1008.00 1008.40 1008.72 1009.04 1009.48 1009.80 1010.04 1010.28 1010.56 1010.76 1010.88 1011.08 1011.40 1011.56 1011.64 1011.80 1011.96 1011.96 1012.12 1012.32 1012.48 1012.52 1012.72 1013.08 1013.40 1013.52 1013.68 1013.84 1014.00 1014.24 1014.48
997.16 997.60 997.88 998.40 998.56 998.76 999.08 999.56 999.84 1000.04 1000.28 1000.48 1000.76 1001.20 1001.44 1001.72 1001.96 1002.16 1002.48 1002.76 1003.08 1003.36 1003.76 1004.08 1004.80 1005.32 1005.72 1006.16 1006.60 1006.80 1007.04 1007.40 1007.72 1007.96 1008.36 1008.76 1009.16 1009.48 1009.72 1009.92 1010.12 1010.32 1010.52 1010.72 1010.88 1010.96 1011.04 1011.16 1011.40 1011.76 1012.00 1012.04 1012.12 1012.28 1012.44 1012.80 1013.00 1013.00 1013.16 1013.44 1013.60 1013.68 1013.92
996.92 997.20 997.76 998.08 998.28 998.52 998.72 998.84 999.04 999.32 999.68 1000.20 1000.52 1000.76 1001.08 1001.36 1001.56 1001.72 1002.08 1002.36 1002.56 1002.92 1003.20 1003.72 1004.48 1005.04 1005.44 1005.80 1006.00 1006.32 1006.68 1007.04 1007.36 1007.68 1008.00 1008.48 1008.80 1009.04 1009.32 1009.60 1009.80 1010.00 1010.20 1010.28 1010.36 1010.48 1010.64 1010.84 1011.00 1011.32 1011.60 1011.80 1011.88 1012.00 1012.24 1012.36 1012.32 1012.28 1012.44 1012.60 1012.88 1013.16 1013.32
996.52 996.80 997.12 997.32 997.60 997.88 998.20 998.48 998.72 999.08 999.48 999.80 1000.00 1000.20 1000.40 1000.60 1000.84 1001.12 1001.56 1001.84 1002.16 1002.56 1002.80 1003.32 1004.08 1004.56 1004.92 1005.28 1005.40 1005.76 1006.16 1006.64 1006.96 1007.28 1007.72 1007.88 1008.24 1008.56 1008.88 1009.16 1009.36 1009.64 1009.80 1009.92 1010.00 1010.16 1010.28 1010.52 1010.80 1010.92 1011.04 1011.28 1011.52 1011.76 1011.84 1011.80 1011.68 1011.68 1012.00 1012.20 1012.32 1012.56 1012.92
996.12 996.36 996.64 996.84 996.96 997.32 998.00 998.48 998.96 999.32 999.40 999.44 999.56 999.76 1000.04 1000.36 1000.60 1000.92 1001.24 1001.36 1001.76 1002.04 1002.32 1002.92 1003.48 1004.00 1004.40 1004.68 1005.04 1005.40 1005.80 1006.12 1006.48 1006.92 1007.16 1007.48 1007.76 1007.96 1008.24 1008.68 1009.04 1009.28 1009.40 1009.56 1009.80 1009.80 1009.92 1010.24 1010.32 1010.44 1010.60 1010.76 1010.96 1011.20 1011.24 1011.24 1011.04 1011.28 1011.56 1011.80 1012.00 1012.20 1012.40
995.72 995.84 996.00 996.20 996.60 997.16 997.52 997.88 998.24 998.60 998.76 998.96 999.12 999.36 999.32 999.48 1000.12 1000.52 1000.56 1000.96 1001.16 1001.52 1002.04 1002.60 1003.04 1003.52 1003.96 1004.20 1004.52 1004.92 1005.28 1005.64 1006.12 1006.48 1006.84 1007.04 1007.28 1007.64 1008.08 1008.48 1008.72 1008.92 1009.12 1009.24 1009.20 1009.48 1009.80 1009.76 1009.92 1010.12 1010.12 1010.32 1010.56 1010.68 1010.60 1010.60 1010.48 1010.84 1011.12 1011.40 1011.64 1011.96 1012.20
995.20 995.44 995.56 995.68 995.96 996.48 996.80 997.16 997.68 998.00 998.12 998.20 998.20 998.28 998.44 998.76 999.24 999.48 999.72 1000.12 1000.60 1001.08 1001.52 1002.12 1002.56 1003.00 1003.44 1003.72 1004.04 1004.36 1004.68 1005.08 1005.56 1006.00 1006.24 1006.56 1007.00 1007.40 1007.80 1008.12 1008.28 1008.28 1008.48 1008.80 1009.08 1009.36 1009.40 1009.44 1009.60 1009.64 1009.84 1009.88 1010.00 1010.04 1009.96 1010.04 1009.96 1010.40 1010.68 1011.00 1011.28 1011.56 1012.04
995.20 995.32 995.60 995.80 996.16 996.32 996.60 996.92 997.28 997.72 998.04 998.12 998.00 998.08 998.36 998.76 998.80 999.16 999.64 999.88 1000.40 1000.64 1001.16 1001.56 1002.00 1002.52 1002.88 1003.32 1003.52 1003.80 1004.20 1004.64 1005.08 1005.52 1005.84 1006.16 1006.56 1006.96 1007.32 1007.56 1007.76 1008.08 1008.16 1008.36 1008.64 1008.84 1008.92 1009.00 1009.20 1009.20 1009.24 1009.36 1009.36 1009.52 1009.68 1009.48 1009.44 1009.92 1010.20 1010.56 1010.88 1011.20 1011.76
995.24 995.20 995.68 995.72 995.92 996.16 996.48 996.76 997.08 997.36 997.56 997.40 997.76 998.04 998.16 998.52 998.60 999.16 999.52 999.52 999.96 1000.36 1000.68 1001.08 1001.60 1002.00 1002.36 1002.80 1003.04 1003.36 1003.68 1004.16 1004.68 1005.08 1005.40 1005.76 1006.12 1006.52 1006.80 1006.96 1007.20 1007.48 1007.56 1007.88 1008.04 1008.08 1008.24 1008.48 1008.60 1008.80 1008.92 1008.88 1009.04 1009.20 1009.28 1008.84 1008.96 1009.40 1009.76 1010.12 1010.52 1011.00 1011.60
994.76 995.16 995.28 995.44 995.32 995.72 995.72 995.84 996.32 996.60 996.96 997.36 997.56 997.88 998.08 998.12 998.44 998.84 999.28 999.68 999.84 1000.12 1000.48 1000.80 1001.28 1001.60 1001.84 1002.24 1002.48 1002.80 1003.12 1003.56 1004.12 1004.60 1004.96 1005.28 1005.72 1006.04 1006.24 1006.48 1006.72 1006.88 1007.08 1007.60 1007.64 1007.80 1007.92 1007.92 1007.92 1007.88 1008.20 1008.44 1008.64 1008.84 1008.76 1008.52 1008.56 1009.00 1009.40 1009.84 1010.24 1011.04 1011.28
995.48 995.56 995.60 995.72 995.64 995.84 995.96 996.16 996.28 996.48 996.80 997.28 997.48 997.48 997.60 997.88 998.28 998.76 999.24 999.52 999.64 1000.00 1000.32 1000.60 1000.88 1001.00 1001.36 1001.64 1001.88 1002.20 1002.56 1002.96 1003.44 1004.00 1004.40 1004.76 1005.16 1005.44 1005.60 1005.72 1005.96 1006.36 1006.48 1007.00 1007.24 1007.40 1007.20 1007.20 1007.52 1007.60 1007.68 1007.92 1008.16 1008.12 1008.40 1008.28 1008.24 1008.80 1009.24 1009.64 1010.04 1010.36 1010.68
996.08 996.24 996.32 996.36 996.40 996.68 996.64 996.64 996.72 996.96 997.16 997.40 997.88 997.80 997.52 997.60 998.04 998.64 999.16 999.32 999.48 999.68 1000.12 1000.28 1000.32 1000.48 1000.84 1001.12 1001.28 1001.56 1001.88 1002.28 1002.72 1003.20 1003.68 1004.12 1004.40 1004.64 1005.04 1005.28 1005.48 1005.64 1006.00 1006.28 1006.52 1006.72 1006.76 1007.08 1007.36 1007.40 1007.36 1007.36 1007.48 1007.64 1008.04 1008.12 1008.28 1008.52 1008.92 1009.28 1009.68 1010.12 1010.28
996.72 996.72 996.84 996.76 996.80 996.92 996.96 996.88 997.08 997.64 998.08 998.28 998.24 997.84 997.64 997.84 998.08 998.40 998.84 999.04 999.12 999.60 999.76 999.64 999.56 999.68 1000.00 1000.40 1000.64 1000.96 1001.32 1001.60 1002.16 1002.52 1002.96 1003.44 1003.76 1003.96 1004.24 1004.48 1004.96 1005.32 1005.56 1005.76 1005.96 1006.28 1006.44 1006.68 1006.92 1007.16 1007.12 1007.04 1007.24 1007.48 1007.64 1008.00 1008.12 1008.28 1008.48 1008.76 1009.16 1009.48 1009.68
996.96 997.00 997.28 997.32 997.40 997.08 997.28 997.52 997.72 998.12 998.44 998.60 998.32 998.12 997.96 997.96 998.40 998.80 998.84 998.96 999.24 999.32 998.96 998.80 999.00 999.32 999.60 999.96 1000.28 1000.56 1000.84 1001.08 1001.44 1001.96 1002.28 1002.56 1002.96 1003.28 1003.68 1003.96 1004.40 1004.76 1005.16 1005.52 1005.68 1005.96 1006.20 1006.40 1006.56 1006.76 1006.80 1006.80 1006.88 1007.12 1007.28 1007.44 1007.76 1007.88 1008.04 1008.24 1008.56 1008.84 1009.12
997.40 997.44 997.44 997.44 997.40 997.48 997.72 997.80 997.96 998.00 998.24 998.56 998.56 998.64 998.52 998.40 998.76 998.88 998.92 999.20 999.32 998.76 998.36 998.56 998.80 999.08 999.44 999.72 1000.00 1000.20 1000.44 1000.72 1000.92 1001.20 1001.64 1001.96 1002.44 1003.12 1003.52 1003.64 1003.88 1004.24 1004.60 1004.96 1005.36 1005.72 1005.96 1006.12 1006.32 1006.48 1006.60 1006.56 1006.60 1006.72 1006.92 1006.88 1007.00 1007.28 1007.56 1007.64 1007.92 1008.16 1008.48
998.44 998.56 998.60 998.44 998.28 997.96 998.00 998.44 998.68 998.88 998.92 998.72 998.68 998.76 998.84 998.76 998.92 998.88 998.92 999.12 998.68 998.48 998.48 998.52 998.68 998.88 999.20 999.48 999.76 999.92 1000.12 1000.36 1000.68 1001.08 1001.32 1001.76 1002.08 1002.64 1003.20 1003.40 1003.72 1004.00 1004.32 1004.76 1005.16 1005.52 1005.88 1006.04 1006.20 1006.40 1006.60 1006.60 1006.52 1006.48 1006.56 1006.56 1006.56 1006.48 1006.80 1007.12 1007.32 1007.60 1008.00
998.72 998.72 998.80 998.76 998.80 998.80 998.56 998.92 999.08 999.28 999.24 999.12 998.92 998.76 998.84 998.96 999.00 998.92 998.88 998.72 998.20 998.20 998.12 998.20 998.48 998.76 999.08 999.32 999.48 999.68 999.88 1000.04 1000.36 1000.64 1000.88 1001.28 1001.76 1002.28 1002.84 1003.24 1003.48 1003.76 1004.04 1004.36 1004.84 1005.32 1005.68 1005.84 1006.00 1006.24 1006.56 1006.76 1006.76 1006.56 1006.40 1006.28 1006.40 1006.80 1007.00 1007.16 1007.52 1007.80 1008.08
999.52 999.48 999.44 999.48 999.40 999.20 999.20 999.44 999.60 999.48 999.36 999.28 999.12 999.12 999.12 998.96 999.00 998.84 998.84 998.36 998.00 998.08 998.12 998.20 998.40 998.76 999.08 999.24 999.36 999.52 999.64 999.88 1000.12 1000.40 1000.72 1001.04 1001.48 1002.20 1002.60 1003.04 1003.24 1003.80 1003.88 1004.20 1004.64 1004.96 1005.40 1005.60 1005.76 1006.04 1006.28 1006.56 1006.72 1006.68 1006.76 1006.92 1006.96 1007.16 1007.36 1007.24 1007.52 1007.96 1008.24
1000.00 999.88 999.84 999.80 999.76 999.72 999.80 999.72 999.72 999.76 999.88 999.68 999.48 999.44 999.32 999.20 999.08 999.08 998.80 998.24 997.96 997.76 997.88 998.00 998.36 998.68 998.88 999.04 999.20 999.40 999.52 999.96 1000.20 1000.32 1000.52 1000.88 1001.16 1001.56 1001.88 1002.40 1002.92 1003.36 1003.72 1003.96 1004.28 1004.56 1004.96 1005.28 1005.52 1005.80 1006.04 1006.40 1006.48 1006.68 1007.16 1007.36 1007.36 1007.52 1007.60 1007.68 1007.84 1008.08 1008.32
1000.28 1000.28 1000.28 1000.44 1000.32 1000.12 1000.20 1000.16 1000.36 1000.52 1000.48 1000.44 1000.08 999.84 999.52 999.24 998.96 998.84 998.52 998.24 997.88 997.68 997.72 998.00 998.20 998.48 998.76 999.00 999.12 999.24 999.44 999.88 1000.28 1000.56 1000.76 1001.00 1001.20 1001.36 1001.64 1001.96 1002.44 1002.88 1003.32 1003.60 1004.00 1004.36 1004.60 1004.96 1005.32 1005.64 1005.88 1006.20 1006.40 1007.00 1007.40 1007.52 1007.68 1007.76 1007.76 1007.80 1007.92 1008.16 1008.40
1000.48 1000.36 1000.24 1000.16 1000.16 1000.08 1000.28 1000.40 1000.60 1000.68 1000.56 1000.48 1000.20 999.80 999.52 999.28 999.12 998.84 998.52 998.16 997.88 997.76 997.76 998.04 998.20 998.44 998.68 998.84 999.00 999.28 999.48 999.84 1000.08 1000.48 1001.04 1001.32 1001.52 1001.84 1001.96 1002.08 1002.16 1002.60 1003.00 1003.32 1003.64 1004.16 1004.52 1004.76 1005.04 1005.28 1005.56 1005.92 1006.60 1007.24 1007.48 1007.80 1007.84 1007.84 1007.84 1007.96 1008.00 1008.24 1008.36
1000.88 1000.88 1000.76 1000.68 1000.60 1000.40 1000.56 1000.60 1000.68 1000.64 1000.56 1000.40 1000.08 999.84 999.68 999.52 999.32 998.96 998.68 998.36 998.08 997.84 998.04 998.16 998.24 998.32 998.56 998.68 998.92 999.28 999.40 999.76 1000.16 1000.68 1001.48 1002.24 1002.84 1003.40 1003.80 1003.56 1003.08 1002.92 1002.88 1002.96 1002.92 1002.92 1003.48 1004.08 1004.36 1004.44 1004.60 1005.24 1006.16 1006.76 1007.60 1007.80 1007.76 1007.80 1007.88 1007.92 1007.96 1007.96 1008.16
1001.52 1001.32 1001.08 1000.76 1000.56 1000.52 1000.56 1000.56 1000.60 1000.72 1000.68 1000.52 1000.08 999.96 999.88 999.76 999.48 999.16 998.80 998.48 998.24 998.04 998.16 998.24 998.32 998.48 998.68 998.72 998.96 999.24 999.60 1000.04 1000.52 1001.12 1001.72 1002.32 1003.00 1003.24 1004.12 1004.64 1004.52 1004.20 1003.64 1003.40 1003.44 1003.24 1002.92 1002.92 1003.64 1004.00 1004.52 1005.56 1006.04 1006.04 1006.16 1006.76 1007.24 1007.68 1007.92 1008.00 1008.12 1008.28 1008.36
1001.80 1001.48 1001.20 1000.84 1000.80 1000.84 1000.88 1000.84 1000.80 1000.88 1000.88 1000.76 1000.20 1000.04 1000.08 999.88 999.68 999.40 999.00 998.72 998.48 998.28 998.28 998.32 998.48 998.68 998.84 998.96 999.20 999.32 999.68 1000.20 1000.88 1001.52 1001.96 1002.40 1002.72 1003.08 1003.64 1004.24 1004.52 1004.76 1004.84 1004.48 1004.20 1003.56 1003.36 1003.68 1003.92 1004.12 1004.12 1004.40 1005.80 1006.52 1006.48 1006.84 1007.40 1007.72 1007.92 1008.08 1008.24 1008.36 1008.48
1001.68 1001.56 1001.28 1001.00 1001.00 1001.12 1001.20 1001.24 1001.20 1001.16 1001.00 1000.64 1000.44 1000.24 1000.16 1000.08 999.84 999.64 999.28 998.96 998.68 998.40 998.44 998.56 998.68 999.00 999.24 999.32 999.56 999.76 1000.04 1000.52 1001.08 1001.60 1002.12 1002.56 1002.68 1002.92 1003.36 1003.88 1004.56 1005.20 1005.40 1005.44 1004.88 1004.72 1004.48 1004.28 1004.52 1004.88 1005.24 1005.32 1005.44 1006.16 1007.28 1007.56 1007.68 1007.80 1007.92 1008.04 1008.24 1008.40 1008.56
Wind_Speed
21 20 19 17 18 19 20 19 18 18 18 18 17 19 19 18 18 17 17 18 19 18 17 17 17 16 18 16 16 14 13 12 11 11 10 9 9 10 10 9 9 8 8 9 9 10 9 8 9 9 8 8 8 8 8 6 6 6 6 5 5 6 7
17 17 17 17 18 19 19 19 17 16 17 18 17 19 18 19 18 18 18 19 20 20 19 18 18 17 18 16 15 15 14 14 13 10 9 8 6 7 9 9 10 9 9 9 8 8 8 8 9 9 9 9 9 8 8 7 7 7 6 6 6 6 6
19 18 18 18 18 18 19 17 18 17 18 17 18 18 19 19 19 21 19 19 20 19 18 18 18 18 17 16 15 15 15 14 13 12 12 11 11 11 9 9 9 9 9 8 8 8 8 9 8 9 9 9 9 9 8 7 7 7 6 6 7 7 7
20 20 20 22 22 20 19 20 21 19 18 19 20 20 20 20 19 18 18 20 20 18 19 18 17 17 15 15 15 15 15 15 15 14 14 12 12 10 9 9 9 8 7 9 9 8 8 9 10 9 9 9 9 9 8 9 8 8 7 7 7 7 7
21 21 20 17 16 16 16 17 19 19 19 20 20 20 20 20 18 16 16 18 20 21 21 20 16 15 13 14 12 12 15 15 14 13 12 11 11 10 10 11 11 11 10 7 7 8 8 9 9 9 9 9 9 9 9 9 9 8 8 8 7 7 7
20 18 16 15 16 17 18 19 20 21 20 20 20 19 18 18 16 18 18 18 18 18 17 17 17 16 15 15 13 12 12 12 12 12 12 12 11 11 12 11 11 11 10 10 7 8 9 10 10 10 10 10 10 10 10 9 9 9 9 8 8 7 7
19 19 18 17 17 17 18 18 18 19 18 19 18 16 16 17 19 19 17 18 18 19 18 19 18 17 15 14 14 14 15 14 13 14 12 12 11 11 11 10 10 10 11 8 8 9 10 11 12 12 11 11 10 11 10 10 10 9 8 8 9 8 8
20 19 19 19 19 17 17 17 18 18 16 14 14 15 17 17 16 17 17 17 18 18 18 19 18 17 16 15 15 16 16 16 14 13 12 13 13 13 12 11 11 11 10 11 11 10 11 12 11 11 12 11 11 11 11 11 11 10 9 9 9 9 7
21 23 21 20 19 17 17 17 18 18 18 18 18 17 17 16 16 17 19 18 17 18 18 18 18 17 15 15 15 16 15 14 14 13 14 15 13 14 13 12 11 10 11 12 11 10 11 11 11 12 12 11 11 11 11 11 11 10 10 10 11 11 10
20 18 18 19 18 17 17 16 15 15 16 16 16 16 17 17 17 17 16 17 16 19 19 18 16 15 15 15 16 15 14 13 13 14 14 15 13 15 14 13 12 11 12 12 11 12 11 11 12 11 11 12 11 11 11 11 11 11 11 12 12 12 12
19 19 17 16 17 16 14 14 15 16 17 17 16 16 17 17 17 16 17 17 18 18 18 17 15 16 16 16 17 15 15 15 14 14 15 15 13 14 14 13 12 11 12 11 12 12 11 11 10 11 11 12 12 12 12 13 13 12 12 12 12 13 12
17 17 17 18 17 15 16 17 16 16 16 16 16 17 17 17 16 16 16 18 18 17 17 17 16 16 16 16 16 15 17 16 15 16 17 16 14 15 14 13 13 12 11 11 12 12 12 12 11 11 13 13 13 13 13 12 12 13 14 14 13 12 12
14 15 17 19 18 17 16 14 17 18 18 17 17 17 16 17 17 16 16 16 16 16 16 16 16 16 16 16 17 16 17 17 17 16 16 16 15 14 13 14 14 14 13 12 13 13 12 13 13 12 13 14 13 13 13 13 13 13 13 13 12 12 12
16 16 16 17 17 18 19 19 19 18 18 17 17 16 15 16 16 16 16 17 16 15 15 14 15 16 17 16 16 16 17 17 16 15 15 14 14 14 14 14 14 14 13 12 13 13 13 14 14 13 12 13 13 13 12 12 12 12 12 12 13 12 13
19 19 18 17 18 18 19 18 17 18 18 18 17 17 17 16 16 15 14 15 15 15 16 15 15 15 16 16 16 16 15 14 13 13 13 14 14 14 15 14 14 14 13 13 13 12 13 13 13 13 13 12 12 13 11 11 12 11 12 13 14 13 14
19 19 18 18 17 16 17 18 19 19 18 17 18 18 17 17 17 17 17 16 16 16 15 14 15 15 15 16 16 15 14 14 13 13 13 14 15 15 15 14 14 14 14 15 15 14 13 13 13 13 13 13 13 12 11 11 10 14 20 17 14 14 13
19 19 18 18 18 18 16 16 16 16 17 18 19 19 18 17 17 16 16 15 16 16 15 15 15 16 16 17 16 15 15 14 14 14 15 15 15 14 15 16 14 14 14 14 14 15 14 13 14 13 13 14 14 13 12 11 12 19 18 20 21 15 13
19 18 18 18 19 16 14 13 13 14 17 18 18 17 16 15 15 15 16 15 15 15 14 15 16 16 16 16 15 14 15 14 14 15 15 15 16 16 15 15 14 14 14 14 14 14 13 14 15 14 13 13 13 14 13 13 16 19 19 20 21 18 14
17 17 18 18 17 15 15 16 16 16 17 16 17 17 17 16 15 16 16 15 14 13 14 15 15 16 16 15 15 15 15 14 14 15 14 15 15 14 13 14 15 15 15 15 14 12 13 15 14 14 14 13 14 14 15 14 18 19 19 19 20 21 17
15 14 15 16 15 15 15 13 12 14 16 17 17 18 17 16 17 16 15 15 14 16 15 15 15 15 16 15 15 15 15 15 15 15 15 14 14 13 14 14 16 15 14 12 11 13 14 14 15 14 14 14 14 15 14 15 16 19 20 19 20 20 17
10 11 12 11 10 11 11 12 12 12 12 12 13 13 13 13 13 12 13 14 15 15 15 15 15 15 15 15 15 15 15 15 15 15 15 15 14 14 15 16 15 14 14 13 13 14 15 15 15 15 15 15 15 14 13 13 18 18 20 20 20 20 17
8 11 11 10 12 11 11 12 13 13 13 10 9 9 10 11 10 11 13 13 14 14 15 15 15 15 14 15 15 16 15 15 15 15 14 14 15 15 16 16 16 16 14 13 12 12 12 12 12 14 14 15 15 15 15 15 18 19 19 21 20 19 12
9 7 7 7 11 11 10 11 12 11 8 7 8 9 10 9 10 11 11 12 13 13 14 14 14 14 15 15 16 16 15 15 15 15 15 15 15 16 16 16 15 14 12 13 13 13 13 14 14 14 14 14 14 15 16 15 15 18 19 19 19 14 10
12 10 8 6 6 6 6 6 6 7 9 9 9 9 7 8 9 9 10 12 11 12 13 14 15 13 14 15 15 15 15 15 16 16 15 15 16 16 15 15 13 13 12 14 14 14 15 14 12 12 13 14 15 15 15 15 12 15 16 18 18 17 13
14 13 12 11 10 9 7 6 5 5 5 6 5 2 5 10 11 10 11 11 12 12 13 14 14 14 13 13 14 15 15 15 16 16 16 16 16 15 15 15 14 13 11 12 12 13 11 10 10 11 11 12 14 15 15 12 9 13 16 18 18 16 11
15 14 13 12 11 9 9 9 9 10 9 8 3 1 2 4 8 11 11 11 11 12 14 15 14 12 11 12 13 14 15 14 16 16 16 16 15 14 14 12 11 12 13 12 11 12 11 10 10 12 11 10 10 10 11 11 7 10 17 19 20 21 14
14 14 14 12 11 10 11 10 10 10 9 6 6 5 4 3 5 6 6 8 10 13 14 12 10 10 10 11 12 13 15 14 15 17 15 15 15 14 13 12 12 12 12 12 11 11 11 12 11 10 10 9 9 8 7 8 8 10 18 19 21 22 20
15 15 13 12 12 10 10 11 11 11 11 8 7 5 4 4 4 2 4 5 8 11 8 6 7 8 9 11 12 13 14 14 14 15 14 13 13 12 11 10 11 11 12 10 10 12 12 11 10 10 9 8 8 8 7 8 14 9 16 20 22 22 24
14 13 13 13 13 11 10 10 10 9 8 8 8 6 4 3 2 1 1 4 8 4 3 5 6 8 9 10 11 12 13 12 14 13 10 11 12 12 12 10 11 11 10 11 11 11 11 11 10 9 8 7 7 6 7 7 10 17 14 19 21 22 22
12 12 12 11 10 9 9 8 7 7 6 7 8 8 7 4 3 1 2 5 4 4 5 6 7 7 9 9 10 11 11 12 12 12 11 13 12 12 11 11 10 10 10 10 10 10 10 9 8 8 8 7 6 5 6 4 2 2 4 7 14 13 15
11 10 10 9 9 8 7 7 6 6 7 7 8 7 7 6 4 3 4 4 2 4 6 6 7 7 8 9 9 10 9 10 10 12 11 11 12 11 11 10 10 10 9 9 9 9 10 9 8 9 8 7 7 5 3 3 4 4 5 6 10 10 10
9 9 8 8 7 7 7 7 8 8 8 9 9 8 7 6 5 6 5 4 4 5 6 7 7 8 9 8 8 9 9 9 9 10 10 11 10 11 11 12 11 11 9 10 10 10 9 9 8 8 7 7 6 5 4 4 5 5 5 6 7 5 6
8 7 7 7 6 5 6 6 6 5 5 5 6 6 6 7 6 5 6 5 5 4 6 6 8 8 7 8 8 8 8 10 9 8 7 8 8 8 9 9 9 10 10 10 10 9 8 8 8 7 7 7 6 6 5 5 5 5 5 5 6 6 6
8 8 7 6 5 6 6 6 4 4 4 4 5 6 7 7 7 7 8 7 6 2 4 5 7 8 8 8 8 8 8 8 10 10 7 4 3 4 5 6 8 10 10 10 9 8 8 8 8 8 8 7 7 7 6 5 4 4 5 5 6 6 5
6 5 4 5 4 4 4 4 5 4 4 4 4 5 7 7 7 8 8 7 6 1 3 5 5 6 7 7 7 8 7 8 8 8 9 9 11 10 8 6 4 1 2 1 1 7 10 9 8 8 6 8 10 10 6 4 6 4 2 5 5 6 6
4 3 3 2 4 4 4 4 3 4 4 4 4 5 6 6 6 7 7 7 6 2 2 3 5 6 7 7 7 7 8 7 8 8 9 9 10 10 10 14 15 10 4 1 5 5 4 7 6 8 9 9 4 2 8 9 7 9 10 8 9 8 8
4 4 2 3 5 4 4 3 3 4 5 6 3 4 4 4 6 7 7 7 5 2 3 2 4 5 6 6 6 8 9 9 8 8 8 8 9 9 11 9 13 18 17 12 9 11 17 17 16 12 11 15 9 7 14 15 14 12 9 8 7 9 10
5 3 1 2 3 3 2 2 3 3 3 4 4 4 3 4 5 5 6 5 3 2 3 3 4 6 5 5 6 8 8 8 9 10 9 8 8 10 11 11 12 12 15 16 16 17 17 18 18 17 16 16 17 13 7 8 9 10 9 8 8 8 9
Wind_Direction
184 185 186 182 183 187 188 186 182 182 184 184 182 180 179 178 178 176 178 179 183 181 183 181 183 183 187 189 188 187 189 189 190 193 195 197 196 192 189 188 188 189 184 189 194 195 198 188 189 190 189 192 194 197 196 187 186 194 192 186 182 183 186
186 188 185 184 188 189 189 187 180 179 184 185 184 182 182 180 178 178 180 181 184 182 181 182 184 187 189 189 188 187 186 189 190 191 194 197 196 197 196 191 189 188 191 194 192 195 186 195 188 188 189 190 196 196 197 194 188 188 191 189 185 189 186
188 189 186 189 189 189 186 185 185 183 183 185 184 184 184 183 181 181 179 181 183 184 181 183 185 187 189 188 186 188 188 187 189 190 192 197 198 196 196 194 195 191 194 192 192 189 190 191 192 190 187 190 193 194 197 196 194 192 192 188 190 190 192
190 189 190 192 191 187 184 185 186 185 183 185 186 185 185 184 184 182 181 180 181 181 185 187 185 187 187 187 188 188 189 189 190 192 196 197 199 197 192 200 199 196 189 196 194 188 189 191 192 191 189 189 191 193 195 199 198 196 193 186 196 197 197
193 192 191 190 187 185 186 187 188 187 185 185 186 186 187 185 180 181 183 183 182 184 185 186 187 186 187 187 190 191 191 190 190 194 196 198 198 195 199 201 201 201 200 193 189 187 187 189 193 191 192 191 193 192 196 199 202 199 196 189 194 199 201
190 189 189 188 186 188 188 189 187 187 186 184 186 187 186 182 180 181 183 182 186 186 183 184 187 186 187 189 189 190 190 192 193 193 194 195 194 198 202 203 202 202 198 197 185 191 189 189 192 193 193 194 193 194 196 198 203 200 200 195 199 196 199
187 186 187 185 187 188 188 189 189 189 188 188 186 183 180 180 183 184 181 184 184 182 183 186 189 187 189 186 190 188 190 192 192 194 194 195 198 202 204 203 202 202 203 188 192 188 190 191 193 194 196 194 195 195 196 198 200 200 199 200 204 201 201
183 185 187 186 186 186 186 187 188 189 186 184 181 183 184 185 184 181 183 184 184 184 186 187 187 189 188 188 190 191 192 193 192 193 193 196 198 202 203 202 201 200 195 198 200 190 192 194 194 194 195 196 197 198 198 199 200 198 195 201 205 206 201
185 184 185 186 184 185 185 184 184 184 183 182 184 184 185 183 184 185 185 183 184 185 189 188 189 189 188 190 191 195 194 191 192 191 195 198 200 204 205 204 203 197 198 202 202 198 197 196 195 195 195 197 198 199 200 200 201 199 197 201 204 205 205
185 187 189 182 182 184 184 182 179 180 184 183 182 184 186 187 189 187 184 183 183 189 189 189 189 186 187 190 195 195 192 192 193 193 196 200 202 206 207 205 205 200 202 204 202 201 204 201 200 197 198 201 201 200 202 201 202 200 201 203 203 206 208
182 185 180 179 182 182 176 175 178 184 185 185 184 185 187 190 189 186 185 184 187 190 188 188 185 186 189 191 193 191 192 194 193 196 198 202 203 207 207 208 208 205 206 204 204 204 203 206 202 202 201 204 205 203 203 203 202 202 204 206 206 207 208
181 178 176 178 182 175 177 182 182 182 186 187 186 187 189 190 190 189 188 191 188 186 185 187 186 188 188 190 191 193 194 194 193 196 199 201 203 205 205 207 209 208 209 206 207 205 205 203 202 203 205 207 208 206 206 205 203 203 205 206 207 208 211
179 177 176 180 178 181 181 179 181 185 186 186 187 188 189 190 190 190 191 191 190 189 187 186 186 187 188 189 192 194 196 195 197 197 197 199 201 202 204 206 208 208 210 207 209 207 206 206 204 205 206 209 207 208 207 206 204 205 207 208 207 208 210
173 177 180 180 182 179 182 185 184 183 184 185 187 187 188 190 191 191 190 190 190 188 187 188 188 187 188 189 193 197 198 198 197 196 197 198 199 202 204 206 207 208 210 208 210 210 208 207 207 208 207 209 209 211 207 206 207 208 208 208 208 208 210
175 179 179 182 184 184 185 181 182 183 183 185 184 185 186 187 191 192 192 190 189 189 189 185 186 189 190 191 195 199 198 196 195 196 196 197 199 203 205 206 207 207 207 208 210 212 212 211 209 209 211 212 211 212 208 206 208 208 208 208 210 209 212
177 177 179 183 185 186 186 186 183 183 182 182 185 186 185 186 189 191 190 191 189 190 187 181 187 188 191 194 197 196 195 194 194 194 194 196 200 203 205 207 207 207 208 209 210 211 211 212 211 210 210 213 215 213 210 210 211 212 208 206 207 210 213
180 179 181 184 186 186 188 189 188 182 181 184 187 187 186 187 188 188 189 190 189 188 185 181 186 190 192 197 196 195 193 192 195 192 195 198 200 202 204 206 207 208 210 210 209 210 210 210 212 211 211 212 214 214 212 214 216 213 207 209 209 208 211
182 182 183 187 188 184 178 182 184 186 187 188 188 187 186 185 185 186 191 188 189 187 184 185 188 191 194 196 194 194 193 195 194 195 198 197 201 202 203 204 206 210 211 210 210 210 209 211 213 212 212 213 215 216 215 217 218 213 209 209 210 209 211
186 185 186 187 186 179 177 177 182 187 190 188 188 189 191 186 183 189 189 187 187 184 186 188 189 191 194 194 194 194 194 194 195 197 198 201 202 203 202 204 209 211 211 212 211 208 210 214 212 213 213 214 215 217 218 220 216 212 209 209 209 210 211
182 186 188 187 183 177 178 176 178 185 188 189 189 189 189 187 190 192 187 185 183 187 188 187 190 191 193 194 195 195 193 194 195 197 200 199 200 200 202 205 211 212 212 213 210 212 215 215 215 214 213 215 217 219 220 221 218 208 208 208 209 209 206
168 173 179 182 179 176 172 175 177 180 186 191 189 186 184 189 193 187 185 184 187 189 189 190 190 190 191 193 194 194 194 194 195 197 198 197 197 199 203 207 211 210 211 209 210 212 214 214 214 215 214 215 218 223 223 225 217 206 207 207 207 208 202
154 159 166 172 169 168 168 172 176 179 188 184 174 182 185 188 182 180 187 186 188 189 192 191 192 192 190 192 193 194 192 192 194 197 197 196 197 199 204 206 206 208 207 208 212 216 217 220 220 219 217 216 217 221 227 228 214 206 205 205 207 202 203
123 129 139 159 163 167 170 171 173 175 162 158 172 176 188 179 176 180 181 186 192 190 192 193 196 194 191 192 192 192 191 191 192 194 196 195 197 201 204 206 207 208 202 208 212 213 214 217 216 218 217 216 215 219 226 232 215 203 204 203 203 192 210
68 71 76 82 82 93 108 118 128 142 157 165 176 183 173 167 168 173 180 188 189 190 195 197 202 196 191 193 191 190 190 191 191 193 194 195 198 202 205 206 206 206 199 207 211 215 217 217 219 220 219 218 218 217 222 229 219 196 200 199 196 193 204
67 67 67 65 75 74 70 80 101 102 106 125 134 165 177 172 170 172 185 188 191 193 196 203 203 198 193 191 189 189 189 190 192 193 194 196 199 201 203 203 204 202 198 208 211 219 220 218 221 223 223 223 223 220 222 229 214 185 191 196 195 196 209
60 60 59 62 60 70 73 73 71 64 61 56 30 333 96 165 175 180 185 191 190 194 203 206 204 197 189 186 188 188 189 190 191 193 194 196 199 200 202 201 200 200 200 205 208 214 216 216 219 223 225 224 225 223 220 222 215 184 191 192 195 194 201
61 58 56 51 54 51 58 57 63 67 62 48 31 26 32 102 161 195 194 187 189 202 207 204 193 185 182 182 185 188 189 190 191 193 195 195 196 197 198 196 199 198 199 203 205 212 215 214 216 220 225 221 218 219 212 201 202 193 189 194 194 198 199
53 51 47 46 44 48 49 45 41 37 33 30 30 30 31 58 80 133 181 188 212 217 206 180 182 176 173 180 185 188 190 191 192 193 193 193 191 193 196 196 195 196 197 199 202 207 213 212 216 220 223 218 210 209 206 193 195 192 198 193 196 198 201
54 51 45 38 34 32 45 45 41 38 30 19 20 16 16 44 76 73 155 196 229 221 183 187 176 173 176 180 184 188 188 189 187 189 191 191 189 188 192 189 190 193 192 196 201 205 209 212 213 217 220 215 211 201 199 197 205 196 196 200 197 199 202
54 49 45 40 39 35 40 42 38 36 28 20 12 5 2 24 355 298 271 255 242 210 201 182 184 176 175 181 185 184 187 185 186 187 188 187 184 186 187 186 189 189 191 193 196 198 204 207 207 209 211 207 196 196 197 198 177 53 29 190 209 210 209
57 54 48 40 29 29 34 35 35 36 30 19 15 9 355 354 349 302 282 271 262 211 198 193 178 178 184 183 182 182 182 181 182 184 184 183 180 183 185 185 182 187 189 188 193 197 201 205 197 205 202 187 185 156 94 56 70 75 49 100 157 166 176
56 57 53 43 31 33 45 47 46 38 25 13 6 359 354 348 3 358 311 302 270 220 201 183 180 186 189 182 177 177 172 175 180 180 179 175 181 184 184 181 182 185 185 186 193 194 199 197 193 197 189 182 178 148 112 78 83 84 87 92 102 116 145
52 52 53 48 40 53 49 58 54 44 36 18 354 354 348 348 354 345 325 327 307 232 188 184 182 186 180 178 176 170 170 170 173 171 167 169 175 182 181 180 181 184 182 187 189 193 197 189 184 186 180 179 157 119 112 97 89 96 94 88 98 100 112
43 39 28 34 37 56 56 55 56 41 38 21 349 352 353 350 349 342 337 330 334 302 177 175 180 178 177 173 165 166 167 167 157 151 145 134 136 151 166 171 184 183 185 185 186 187 191 182 186 183 179 166 128 128 116 106 95 104 120 113 110 105 103
46 48 37 39 31 55 66 55 38 21 29 3 344 359 358 346 340 340 338 331 327 14 153 165 169 165 164 161 158 160 154 149 145 129 116 96 81 67 49 8 356 12 83 1 296 198 178 183 184 182 169 144 150 140 124 127 136 153 118 106 100 118 120
40 41 34 53 62 59 53 41 45 16 0 338 2 12 359 342 336 332 332 330 327 357 114 155 149 153 162 160 155 145 134 127 124 123 119 117 110 102 75 57 55 33 22 345 344 35 58 150 154 151 125 110 78 126 156 159 151 137 124 116 103 95 103
24 23 29 66 67 44 37 11 13 15 359 335 358 36 351 344 334 334 333 332 327 8 70 110 137 141 146 144 144 142 134 129 120 114 114 117 115 105 102 83 48 39 37 48 46 85 92 83 79 92 126 133 126 75 89 112 124 136 138 125 122 118 114
359 356 26 107 107 104 66 16 10 9 347 347 357 21 351 342 334 334 329 332 333 47 71 75 114 119 109 101 104 110 115 118 120 123 120 117 117 114 113 102 93 56 36 37 58 59 71 87 91 91 90 103 116 119 78 94 125 138 137 133 128 120 112